• In Netherlands
  • List of Countries
  • For 7 days
  • Water Temperature
  • Satellite Maps
  • Weather Map
  • Weather Widgets
  • user-avatar
    Login

    Hourly Weather Jambol

    Today, 26 July, Wednesday

    Time Temperature Precipitation Wind Pressure Humidity
    00:00 +21°C° 0 mm 3 mps 742 mmHg 79%
    01:00 +21°C° 0 mm 2 mps 742 mmHg 79%
    02:00 +21°C° 0 mm 2 mps 742 mmHg 79%
    03:00 +21°C° 0 mm 1 mps 742 mmHg 80%
    04:00 +21°C° 0 mm 1 mps 742 mmHg 80%
    05:00 +21°C° 0 mm 1 mps 742 mmHg 80%
    06:00 +23°C° 0 mm 1 mps 742 mmHg 73%
    07:00 +25°C° 0 mm 2 mps 742 mmHg 65%
    08:00 +26°C° 0 mm 2 mps 742 mmHg 58%
    09:00 +28°C° 0 mm 2 mps 742 mmHg 51%
    10:00 +30°C° 0 mm 2 mps 743 mmHg 44%
    11:00 +32°C° 0 mm 2 mps 743 mmHg 38%
    12:00 +35°C° 0 mm 3 mps 742 mmHg 35%
    13:00 +36°C° 0 mm 3 mps 742 mmHg 32%
    14:00 +37°C° 0 mm 3 mps 742 mmHg 30%
    15:00 +36°C° 0 mm 3 mps 741 mmHg 33%
    16:00 +34°C° 0 mm 4 mps 741 mmHg 37%
    17:00 +33°C° 0 mm 4 mps 740 mmHg 40%
    18:00 +30°C° 0.2 mm 4 mps 740 mmHg 47%
    19:00 +28°C° 0.2 mm 3 mps 740 mmHg 55%
    20:00 +26°C° 0.2 mm 3 mps 740 mmHg 62%
    21:00 +25°C° 0.1 mm 3 mps 741 mmHg 66%
    22:00 +24°C° 0.1 mm 3 mps 741 mmHg 70%
    23:00 +24°C° 0.1 mm 2 mps 742 mmHg 74%

    Tomorrow, 27 July, Thursday

    Time Temperature Precipitation Wind Pressure Humidity
    00:00 +23°C° 0 mm 2 mps 742 mmHg 76%
    01:00 +23°C° 0 mm 2 mps 741 mmHg 79%
    02:00 +21°C° 0 mm 2 mps 741 mmHg 82%
    03:00 +21°C° 0 mm 2 mps 741 mmHg 84%
    04:00 +20°C° 0 mm 2 mps 741 mmHg 86%
    05:00 +20°C° 0 mm 2 mps 741 mmHg 88%
    06:00 +21°C° 0 mm 2 mps 741 mmHg 81%
    07:00 +24°C° 0 mm 2 mps 742 mmHg 75%
    08:00 +26°C° 0 mm 3 mps 742 mmHg 68%
    09:00 +27°C° 0 mm 3 mps 742 mmHg 62%
    10:00 +28°C° 0 mm 4 mps 742 mmHg 56%
    11:00 +30°C° 0 mm 4 mps 743 mmHg 50%
    12:00 +30°C° 0.1 mm 4 mps 742 mmHg 49%
    13:00 +30°C° 0.1 mm 5 mps 742 mmHg 48%
    14:00 +30°C° 0.1 mm 5 mps 742 mmHg 47%
    15:00 +30°C° 0.1 mm 5 mps 742 mmHg 47%
    16:00 +30°C° 0.1 mm 5 mps 742 mmHg 47%
    17:00 +29°C° 0.1 mm 6 mps 742 mmHg 47%
    18:00 +27°C° 0.5 mm 5 mps 742 mmHg 54%
    19:00 +25°C° 0.5 mm 4 mps 743 mmHg 60%
    20:00 +22°C° 0.5 mm 3 mps 743 mmHg 66%
    21:00 +22°C° 0.1 mm 3 mps 743 mmHg 67%
    22:00 +21°C° 0.1 mm 3 mps 743 mmHg 68%
    23:00 +20°C° 0.1 mm 3 mps 743 mmHg 69%

    Day after tomorrow, 28 July, Friday

    Time Temperature Precipitation Wind Pressure Humidity
    00:00 +20°C° 0.1 mm 3 mps 744 mmHg 68%
    01:00 +20°C° 0.1 mm 3 mps 744 mmHg 67%
    02:00 +20°C° 0.1 mm 3 mps 744 mmHg 66%
    03:00 +20°C° 0 mm 3 mps 744 mmHg 65%
    04:00 +20°C° 0 mm 3 mps 744 mmHg 63%
    05:00 +19°C° 0 mm 3 mps 745 mmHg 62%
    06:00 +21°C° 0 mm 4 mps 745 mmHg 58%
    07:00 +22°C° 0 mm 5 mps 746 mmHg 53%
    08:00 +25°C° 0 mm 5 mps 746 mmHg 49%
    09:00 +26°C° 0 mm 5 mps 746 mmHg 45%
    10:00 +28°C° 0 mm 5 mps 746 mmHg 42%
    11:00 +30°C° 0 mm 5 mps 747 mmHg 38%
    12:00 +32°C° 0 mm 5 mps 747 mmHg 36%
    13:00 +32°C° 0 mm 5 mps 747 mmHg 34%
    14:00 +33°C° 0 mm 4 mps 747 mmHg 32%
    15:00 +33°C° 0 mm 4 mps 747 mmHg 32%
    16:00 +33°C° 0 mm 4 mps 747 mmHg 32%
    17:00 +33°C° 0 mm 4 mps 747 mmHg 32%
    18:00 +30°C° 0 mm 3 mps 747 mmHg 37%
    19:00 +28°C° 0 mm 3 mps 748 mmHg 43%
    20:00 +26°C° 0 mm 2 mps 748 mmHg 48%
    21:00 +25°C° 0 mm 2 mps 749 mmHg 51%
    22:00 +24°C° 0 mm 2 mps 749 mmHg 53%
    23:00 +23°C° 0 mm 1 mps 749 mmHg 55%

    29 July, Saturday

    Time Temperature Precipitation Wind Pressure Humidity
    00:00 +23°C° 0 mm 1 mps 750 mmHg 56%
    01:00 +23°C° 0 mm 1 mps 750 mmHg 57%
    02:00 +22°C° 0 mm 1 mps 750 mmHg 57%
    03:00 +22°C° 0 mm 1 mps 750 mmHg 58%
    04:00 +22°C° 0 mm 1 mps 750 mmHg 59%
    05:00 +21°C° 0 mm 1 mps 751 mmHg 60%
    06:00 +23°C° 0 mm 2 mps 751 mmHg 55%
    07:00 +25°C° 0 mm 2 mps 751 mmHg 49%
    08:00 +27°C° 0 mm 2 mps 752 mmHg 43%
    09:00 +29°C° 0 mm 2 mps 752 mmHg 39%
    10:00 +31°C° 0 mm 3 mps 752 mmHg 34%
    11:00 +34°C° 0 mm 3 mps 752 mmHg 29%
    12:00 +35°C° 0 mm 3 mps 752 mmHg 27%
    13:00 +36°C° 0 mm 3 mps 752 mmHg 25%
    14:00 +37°C° 0 mm 3 mps 752 mmHg 23%
    15:00 +36°C° 0 mm 3 mps 752 mmHg 24%
    16:00 +36°C° 0 mm 4 mps 752 mmHg 25%
    17:00 +36°C° 0 mm 4 mps 752 mmHg 25%
    18:00 +34°C° 0 mm 3 mps 752 mmHg 32%
    19:00 +30°C° 0 mm 3 mps 752 mmHg 39%
    20:00 +28°C° 0 mm 2 mps 752 mmHg 46%
    21:00 +27°C° 0 mm 2 mps 753 mmHg 48%
    22:00 +26°C° 0 mm 2 mps 753 mmHg 51%
    23:00 +25°C° 0 mm 1 mps 753 mmHg 54%

    30 July, Sunday

    Time Temperature Precipitation Wind Pressure Humidity
    00:00 +24°C° 0 mm 1 mps 753 mmHg 55%
    01:00 +24°C° 0 mm 1 mps 753 mmHg 57%
    02:00 +23°C° 0 mm 1 mps 753 mmHg 58%
    03:00 +23°C° 0 mm 1 mps 753 mmHg 59%
    04:00 +23°C° 0 mm 1 mps 753 mmHg 60%
    05:00 +22°C° 0 mm 1 mps 753 mmHg 61%
    06:00 +24°C° 0 mm 1 mps 753 mmHg 55%
    07:00 +26°C° 0 mm 2 mps 754 mmHg 50%
    08:00 +28°C° 0 mm 2 mps 754 mmHg 45%
    09:00 +30°C° 0 mm 3 mps 754 mmHg 40%
    10:00 +33°C° 0 mm 3 mps 754 mmHg 35%
    11:00 +34°C° 0 mm 4 mps 754 mmHg 31%
    12:00 +35°C° 0 mm 4 mps 753 mmHg 29%
    13:00 +35°C° 0 mm 5 mps 753 mmHg 28%
    14:00 +36°C° 0 mm 5 mps 753 mmHg 26%
    15:00 +35°C° 0 mm 6 mps 752 mmHg 28%
    16:00 +34°C° 0 mm 6 mps 752 mmHg 30%
    17:00 +33°C° 0 mm 6 mps 752 mmHg 31%
    18:00 +30°C° 0 mm 5 mps 752 mmHg 39%
    19:00 +28°C° 0 mm 4 mps 752 mmHg 48%
    20:00 +25°C° 0 mm 3 mps 753 mmHg 56%
    21:00 +24°C° 0 mm 3 mps 753 mmHg 63%
    22:00 +23°C° 0 mm 2 mps 753 mmHg 70%
    23:00 +21°C° 0 mm 2 mps 753 mmHg 77%

    31 July, Monday

    Time Temperature Precipitation Wind Pressure Humidity
    00:00 +21°C° 0 mm 2 mps 753 mmHg 80%
    01:00 +20°C° 0 mm 2 mps 753 mmHg 82%
    02:00 +20°C° 0 mm 2 mps 752 mmHg 84%
    03:00 +19°C° 0 mm 2 mps 752 mmHg 83%
    04:00 +19°C° 0 mm 2 mps 752 mmHg 83%
    05:00 +19°C° 0 mm 2 mps 752 mmHg 83%
    06:00 +21°C° 0 mm 2 mps 753 mmHg 73%
    07:00 +25°C° 0 mm 3 mps 753 mmHg 64%
    08:00 +27°C° 0 mm 3 mps 753 mmHg 54%
    09:00 +29°C° 0 mm 4 mps 753 mmHg 48%
    10:00 +32°C° 0 mm 4 mps 753 mmHg 42%
    11:00 +33°C° 0 mm 5 mps 753 mmHg 35%
    12:00 +34°C° 0 mm 5 mps 753 mmHg 34%
    13:00 +35°C° 0 mm 6 mps 752 mmHg 33%
    14:00 +36°C° 0 mm 6 mps 752 mmHg 31%
    15:00 +35°C° 0 mm 6 mps 752 mmHg 33%
    16:00 +34°C° 0 mm 6 mps 752 mmHg 34%
    17:00 +34°C° 0 mm 6 mps 752 mmHg 35%
    18:00 +30°C° 0 mm 5 mps 752 mmHg 42%
    19:00 +28°C° 0 mm 4 mps 752 mmHg 49%
    20:00 +26°C° 0 mm 3 mps 752 mmHg 56%
    21:00 +25°C° 0 mm 3 mps 753 mmHg 61%
    22:00 +24°C° 0 mm 3 mps 753 mmHg 66%
    23:00 +21°C° 0 mm 2 mps 753 mmHg 71%
    Show more